[[{"header":{"parameterUnit":"m.s-1","parameterCategory":1,"la1":30.2991,"la2":30.254,"lo1":-89.0895,"lo2":-89.0444,"dy":0.0017,"dx":0.0017,"nx":28,"ny":28,"refTime":"2025-03-18T09:00:00:Z","depth":0,"parameterNumber":2,"parameterNumberName":"U-component_of_WINDS"},"data":[0,0,0,0,0,0,0,0,0,0,0,0,0,0,0,0,0,0,0,0,0,0,0,0,0,0,0,0,0,0,0,0,0,0,0,0,0,0,0,0,0,0,0,0,0,0,0,0,0,0,0,0,0,0,0,0,0,0,-0.126,-0.126,0,-0.1266,-0.1266,-0.1266,-0.1275,-0.1275,-0.1275,-0.1275,-0.1282,-0.1282,-0.1282,0,0,0,0,0,0,0,0,0,0,0,0,0,-0.1257,-0.1257,-0.126,-0.126,-0.126,-0.1266,-0.1266,-0.1266,-0.1275,-0.1275,-0.1275,-0.1275,-0.1282,-0.1282,-0.1282,0,0,0,0,0,0,0,0,0,0,0,0,0,-0.126,-0.1257,-0.126,-0.1265,-0.1266,-0.1266,-0.1266,-0.1266,-0.1275,-0.1275,-0.1275,-0.1276,-0.1282,-0.1282,-0.1282,-0.1278,0,0,-0.1282,-0.1282,0,0,0,0,0,0,0,0,-0.126,-0.126,-0.1264,-0.1265,-0.1266,-0.127,-0.1267,-0.127,-0.1275,-0.1271,-0.1275,-0.1276,-0.1278,-0.1278,-0.1279,-0.1278,-0.1278,-0.1282,-0.1282,-0.1282,-0.1282,0,0,0,0,0,0,0,-0.126,-0.126,-0.1263,-0.1265,-0.1265,-0.1268,-0.1268,-0.1268,-0.1273,-0.1272,-0.1272,-0.1273,-0.1278,-0.1279,-0.1279,-0.1278,-0.1282,-0.1282,-0.1282,-0.1282,-0.1276,-0.1276,0,0,0,0,0,0,-0.1259,-0.126,-0.1262,-0.1263,-0.1263,-0.1267,-0.1268,-0.1268,-0.1273,-0.1274,-0.1273,-0.1273,-0.1278,-0.1279,-0.1279,-0.1276,-0.1282,-0.1282,-0.1282,-0.1276,-0.1276,-0.1276,0,0,0,0,0,0,-0.1258,-0.1259,-0.1262,-0.1261,-0.1262,-0.1267,-0.1267,-0.1268,-0.1269,-0.1274,-0.1275,-0.1272,-0.1279,-0.1279,-0.1278,-0.1276,-0.1282,-0.1282,-0.1276,-0.1276,-0.1276,-0.1268,0,0,0,0,0,0,-0.1258,-0.1259,-0.1257,-0.1261,-0.1262,-0.1261,-0.1267,-0.1268,-0.1269,-0.127,-0.1274,-0.1275,-0.1279,-0.1278,-0.1278,-0.1276,-0.1282,-0.1276,-0.1276,-0.1276,-0.1268,-0.1267,-0.1266,0,0,0,0,0,-0.1258,-0.1254,-0.1257,-0.1257,-0.126,-0.1261,-0.1261,-0.1266,-0.1269,-0.1267,-0.1271,-0.1275,-0.1276,-0.1278,-0.1278,-0.1276,-0.1277,-0.1276,-0.1276,-0.1269,-0.1268,-0.1266,0,0,0,0,0,0,-0.1249,-0.1255,-0.1258,-0.1255,-0.1257,-0.1262,-0.126,-0.1264,-0.1266,-0.1266,-0.1272,-0.1273,-0.1271,-0.1274,-0.1276,-0.1273,-0.1277,-0.1277,-0.1272,-0.127,-0.127,-0.1269,-0.1282,0,0,0,0,0,-0.1247,-0.1247,-0.1252,-0.1249,-0.125,-0.1255,-0.1255,-0.1259,-0.1262,-0.1263,-0.1266,-0.1268,-0.127,-0.127,-0.1271,-0.1269,-0.127,-0.1267,-0.1266,-0.1266,-0.1265,-0.1265,-0.1264,-0.1274,-0.1274,-0.1274,0,0,-0.1242,-0.1245,-0.1245,-0.1247,-0.1249,-0.125,-0.1256,-0.1255,-0.1256,-0.1263,-0.1262,-0.1265,-0.1268,-0.1267,-0.1266,-0.1268,-0.1263,-0.1265,-0.1264,-0.1265,-0.1265,-0.1264,-0.1263,-0.1274,-0.1274,-0.1274,0,0,-0.1234,-0.1236,-0.1234,-0.1236,-0.124,-0.1243,-0.1243,-0.1247,-0.1249,-0.1249,-0.1254,-0.1255,-0.1256,-0.1259,-0.126,-0.1254,-0.1258,-0.1254,-0.1249,-0.1249,-0.1248,-0.1248,-0.1246,-0.1245,-0.1254,-0.1254,-0.1254,0,-0.1227,-0.1228,-0.1233,-0.1232,-0.1234,-0.124,-0.1239,-0.1241,-0.1244,-0.1245,-0.1248,-0.1251,-0.1253,-0.1253,-0.1251,-0.1252,-0.1252,-0.1254,-0.1248,-0.1247,-0.1247,-0.1245,-0.1245,-0.1253,-0.1253,-0.1253,-0.1253,0,-0.122,-0.122,-0.1219,-0.1223,-0.1224,-0.1223,-0.1228,-0.1229,-0.1232,-0.1236,-0.1236,-0.1239,-0.1242,-0.1242,-0.1245,-0.1242,-0.1244,-0.1247,-0.1251,-0.1245,-0.1244,-0.1244,-0.1253,-0.1253,-0.1253,-0.1253,0,0,-0.1206,-0.1213,-0.1212,-0.1215,-0.1219,-0.122,-0.122,-0.1222,-0.1223,-0.1225,-0.1226,-0.1227,-0.1231,-0.1232,-0.1236,-0.1236,-0.1232,-0.1239,-0.1239,-0.1238,-0.123,-0.1228,-0.1227,-0.1234,-0.1234,-0.1234,-0.123,0,-0.1199,-0.1199,-0.1204,-0.1203,-0.1204,-0.121,-0.121,-0.1213,-0.1217,-0.1218,-0.1222,-0.1223,-0.1227,-0.1228,-0.1228,-0.1232,-0.123,-0.1232,-0.1235,-0.1235,-0.1234,-0.1226,-0.1224,-0.1219,-0.1229,-0.1229,-0.1229,0,-0.1191,-0.1193,-0.1192,-0.1198,-0.1198,-0.1198,-0.1202,-0.1203,-0.1207,-0.1209,-0.1211,-0.1216,-0.1216,-0.122,-0.1222,-0.1223,-0.1225,-0.1227,-0.1227,-0.1228,-0.1232,-0.1227,-0.1218,-0.1218,-0.1228,-0.1228,-0.1228,0,-0.1182,-0.1185,-0.1185,-0.1186,-0.1193,-0.1193,-0.1195,-0.1199,-0.1201,-0.1204,-0.1205,-0.1208,-0.1209,-0.1212,-0.1217,-0.1219,-0.1218,-0.1222,-0.122,-0.122,-0.122,-0.122,-0.1212,-0.122,-0.122,-0.122,-0.122,0,-0.1174,-0.1173,-0.1181,-0.1181,-0.1181,-0.1187,-0.1186,-0.1189,-0.1193,-0.1194,-0.12,-0.1201,-0.1207,-0.1209,-0.1213,-0.1214,-0.1215,-0.1217,-0.1218,-0.1217,-0.1217,-0.1218,-0.1219,-0.122,-0.122,-0.122,-0.122,0,-0.1163,-0.1168,-0.1169,-0.1175,-0.1177,-0.1176,-0.1182,-0.1182,-0.1186,-0.1188,-0.1188,-0.1195,-0.1197,-0.1202,-0.1206,-0.1209,-0.1209,-0.1211,-0.1208,-0.1209,-0.1207,-0.1208,-0.12,-0.1199,-0.1208,-0.1208,-0.1208,0,-0.1158,-0.1158,-0.1164,-0.1166,-0.1168,-0.117,-0.1172,-0.1178,-0.1179,-0.1184,-0.1184,-0.1187,-0.119,-0.1194,-0.1199,-0.1202,-0.1204,-0.1201,-0.1205,-0.1204,-0.1205,-0.1205,-0.1206,-0.1201,-0.1201,-0.1201,-0.12,0,-0.1149,-0.1152,-0.1154,-0.1157,-0.1159,-0.1162,-0.1166,-0.1166,-0.1173,-0.1175,-0.1178,-0.118,-0.1184,-0.1188,-0.1192,-0.1195,-0.1199,-0.1199,-0.1199,-0.1198,-0.1197,-0.1198,-0.1207,-0.12,-0.12,-0.12,-0.12,-0.12,-0.1141,-0.1142,-0.1147,-0.1149,-0.1152,-0.1156,-0.1157,-0.1161,-0.1163,-0.1168,-0.1171,-0.1174,-0.1178,-0.1184,-0.1187,-0.119,-0.1192,-0.1191,-0.1191,-0.1191,-0.1191,-0.1196,-0.119,-0.119,-0.119,-0.119,-0.119,0,-0.1133,-0.1136,-0.1139,-0.1144,-0.1146,-0.115,-0.1154,-0.1156,-0.1158,-0.1162,-0.1165,-0.1168,-0.1172,-0.1177,-0.1181,-0.1182,-0.1184,-0.1183,-0.1183,-0.1184,-0.1189,-0.1189,-0.1181,-0.1181,-0.1181,-0.1181,-0.1181,-0.1181,-0.1129,-0.113,-0.1134,-0.1137,-0.114,-0.1143,-0.1145,-0.1148,-0.1152,-0.1156,-0.1158,-0.1162,-0.1167,-0.1171,-0.1174,-0.1176,-0.1177,-0.1175,-0.1178,-0.1182,-0.1183,-0.1184,-0.1184,-0.1176,-0.1176,-0.1172,-0.1172,-0.1172]},{"header":{"parameterUnit":"m.s-1","parameterCategory":1,"la1":30.2991,"la2":30.254,"lo1":-89.0895,"lo2":-89.0444,"dy":0.0017,"dx":0.0017,"nx":28,"ny":28,"refTime":"2025-03-18T09:00:00:Z","depth":0,"parameterNumber":3,"parameterNumberName":"V-component_of_WINDS"},"data":[0,0,0,0,0,0,0,0,0,0,0,0,0,0,0,0,0,0,0,0,0,0,0,0,0,0,0,0,0,0,0,0,0,0,0,0,0,0,0,0,0,0,0,0,0,0,0,0,0,0,0,0,0,0,0,0,0,0,7.152,7.1522,0,7.1676,7.1678,7.168,7.1668,7.1666,7.1663,7.1661,7.1815,7.1821,7.1827,0,0,0,0,0,0,0,0,0,0,0,0,0,7.1205,7.121,7.152,7.1522,7.1524,7.1676,7.1678,7.168,7.1668,7.1666,7.1663,7.166,7.1813,7.182,7.1827,0,0,0,0,0,0,0,0,0,0,0,0,0,7.1349,7.1212,7.152,7.1537,7.154,7.1676,7.1678,7.1681,7.1669,7.1665,7.1662,7.1659,7.181,7.1819,7.1828,7.1956,0,0,7.1857,7.1861,0,0,0,0,0,0,0,0,7.1341,7.1361,7.1532,7.1536,7.1539,7.1649,7.1623,7.1773,7.167,7.162,7.1661,7.1657,7.1762,7.1775,7.1812,7.1963,7.197,7.1858,7.1864,7.1868,7.187,0,0,0,0,0,0,0,7.1331,7.1354,7.1582,7.1535,7.1539,7.1534,7.1551,7.1652,7.1708,7.1624,7.1623,7.1642,7.1763,7.1803,7.1815,7.1972,7.1858,7.1866,7.1872,7.1875,7.2233,7.2237,0,0,0,0,0,0,7.1318,7.1346,7.1577,7.1586,7.143,7.1542,7.1561,7.1617,7.1707,7.1718,7.1645,7.1641,7.1789,7.1804,7.1821,7.1975,7.1868,7.1876,7.1882,7.2229,7.2234,7.2238,0,0,0,0,0,0,7.1311,7.1339,7.1571,7.1466,7.1495,7.1552,7.1615,7.1622,7.1662,7.1723,7.1733,7.1676,7.1786,7.1807,7.1922,7.198,7.1881,7.1889,7.2225,7.2231,7.2236,7.2284,0,0,0,0,0,0,7.1302,7.1336,7.1387,7.1467,7.1501,7.1672,7.1619,7.1628,7.1679,7.1675,7.1755,7.1764,7.1785,7.1908,7.1932,7.1991,7.1896,7.222,7.2228,7.2234,7.2278,7.2291,7.2302,0,0,0,0,0,7.1291,7.1394,7.139,7.1418,7.1566,7.1675,7.1694,7.1718,7.1684,7.1734,7.1773,7.1762,7.197,7.192,7.1946,7.2009,7.2216,7.2225,7.2234,7.2272,7.2288,7.2302,0,0,0,0,0,0,7.1317,7.1404,7.1401,7.1533,7.1597,7.1673,7.1738,7.1735,7.1808,7.1802,7.1826,7.1844,7.1959,7.1996,7.1939,7.2136,7.2088,7.2103,7.2108,7.2124,7.2136,7.2124,7.1904,0,0,0,0,0,7.1339,7.1422,7.1493,7.1603,7.1635,7.1681,7.1729,7.1742,7.1809,7.1835,7.1883,7.1945,7.2025,7.2077,7.2153,7.2283,7.2299,7.2339,7.2351,7.2361,7.2372,7.2442,7.246,7.2267,7.2267,7.2267,0,0,7.1383,7.1441,7.1492,7.1609,7.166,7.1744,7.1704,7.1794,7.1856,7.1848,7.196,7.1997,7.2068,7.2191,7.2247,7.2225,7.2429,7.2372,7.2379,7.2386,7.2452,7.2471,7.2487,7.2273,7.2272,7.2271,0,0,7.1507,7.156,7.1656,7.1708,7.1787,7.1816,7.1839,7.1916,7.1941,7.2054,7.2049,7.2121,7.2258,7.2309,7.2353,7.2494,7.2486,7.2518,7.2582,7.2649,7.2664,7.2678,7.2727,7.2744,7.253,7.253,7.253,0,7.1551,7.168,7.1705,7.1797,7.1848,7.1846,7.1942,7.1991,7.2089,7.2123,7.2097,7.2268,7.2316,7.245,7.2484,7.252,7.2545,7.2509,7.266,7.2674,7.2687,7.2734,7.2752,7.2533,7.2533,7.2533,7.2532,0,7.173,7.1819,7.1887,7.1984,7.2042,7.2135,7.2173,7.2228,7.2236,7.2267,7.238,7.2438,7.2526,7.2559,7.2566,7.2693,7.2676,7.2655,7.2607,7.2708,7.2753,7.2771,7.2538,7.2537,7.2536,7.2535,0,0,7.1875,7.1984,7.2009,7.2052,7.2138,7.2205,7.2297,7.2385,7.2431,7.2498,7.2575,7.269,7.2671,7.272,7.2734,7.2793,7.2899,7.2764,7.2766,7.2786,7.304,7.3054,7.3075,7.2894,7.2898,7.2901,7.3033,0,7.2006,7.2172,7.2197,7.2341,7.2422,7.2421,7.2501,7.2561,7.2592,7.2664,7.2698,7.2779,7.2748,7.2778,7.2836,7.2874,7.295,7.2865,7.2963,7.2966,7.2945,7.3098,7.3114,7.3237,7.3051,7.3054,7.3056,0,7.2181,7.2255,7.2408,7.2482,7.2516,7.2588,7.2669,7.2738,7.2805,7.2824,7.2879,7.2885,7.2977,7.2926,7.3053,7.2995,7.3036,7.306,7.3066,7.3075,7.3017,7.311,7.3276,7.3294,7.3084,7.3082,7.308,0,7.227,7.2407,7.2516,7.2553,7.2642,7.2692,7.2731,7.2794,7.2845,7.2915,7.2947,7.3027,7.307,7.313,7.3156,7.3117,7.3281,7.3232,7.3297,7.3296,7.3331,7.3328,7.3504,7.336,7.3359,7.3359,7.3359,0,7.2413,7.2506,7.2557,7.2624,7.2727,7.2754,7.2855,7.2892,7.2948,7.3021,7.3024,7.3091,7.3122,7.3194,7.3215,7.3315,7.3335,7.3351,7.3355,7.335,7.3348,7.3377,7.3369,7.3364,7.3363,7.3362,7.3361,0,7.2529,7.2567,7.2685,7.276,7.278,7.2853,7.2916,7.2979,7.301,7.3101,7.3124,7.3172,7.3256,7.3288,7.3391,7.3404,7.352,7.3518,7.3498,7.3499,7.3561,7.3555,7.3762,7.379,7.3627,7.3629,7.363,0,7.2617,7.2689,7.2771,7.2821,7.2862,7.2942,7.2993,7.3021,7.3075,7.3155,7.3209,7.3293,7.3362,7.3496,7.3538,7.3616,7.3615,7.3682,7.3626,7.3619,7.3614,7.3609,7.3615,7.3692,7.3693,7.3695,7.3696,0,7.277,7.2785,7.286,7.2942,7.3004,7.3069,7.3132,7.3172,7.321,7.3269,7.3356,7.3409,7.3514,7.3597,7.3677,7.3714,7.3711,7.3713,7.3732,7.3727,7.3712,7.372,7.3525,7.3708,7.3707,7.3706,7.3705,7.3705,7.2874,7.2937,7.3005,7.3088,7.3139,7.3198,7.3261,7.33,7.3373,7.3462,7.3474,7.3566,7.3629,7.3736,7.3777,7.3848,7.383,7.3858,7.3864,7.3871,7.3874,7.3702,7.3863,7.3863,7.3862,7.3862,7.3862,0,7.3025,7.3069,7.3145,7.3234,7.3299,7.3292,7.3361,7.3415,7.3498,7.3557,7.3625,7.3724,7.3804,7.3853,7.3933,7.398,7.3981,7.4,7.3996,7.4004,7.3887,7.3862,7.3998,7.3998,7.3998,7.3998,7.3998,7.3998,7.3112,7.3218,7.3241,7.3371,7.3413,7.3505,7.3545,7.3598,7.3646,7.3757,7.3824,7.3856,7.3911,7.3994,7.4067,7.4079,7.4107,7.4128,7.4138,7.4027,7.4013,7.3999,7.3976,7.4134,7.4135,7.425,7.4251,7.4252]}]]